This demonstration page uses our WeatherBlox Daily Observations layout. Learn more.

Left ArrowRight Arrow

Hourly Observations for May 17, 2021

Temp ( °F °C ) Dew Point ( °F °C ) Humidity (%) Winds ( mph kmh ) Pressure ( in mb ) Visibility ( mi km ) Precip ( " mm )
12:06 am 00:06 Cloudy 59 15 57 14 94 94 E 9 15 29.97 1015 10 16 0.00 0.00
12:18 am 00:18 Cloudy 59 15 57 14 94 94 E 8 13 29.97 1015 10 16 0.00 0.00
12:26 am 00:26 Cloudy 59 15 57 14 94 94 E 10 17 29.97 1015 10 16 0.00 0.00
12:56 am 00:56 Cloudy 58 14.4 56 13.3 93 93 E 12 19 29.97 1015 10 16 0.00 0.00
1:12 am 01:12 Cloudy 57 14 55 13 94 94 E 10 17 29.96 1015 10 16 0.00 0.00
1:31 am 01:31 Cloudy 57 14 55 13 94 94 E 12 19 29.95 1014 10 16 0.00 0.00
1:56 am 01:56 Cloudy 58 14.4 56 13.3 93 93 E 8 13 29.94 1014 10 16 0.00 0.00
2:56 am 02:56 Cloudy 58 14.4 56 13.3 93 93 E 9 15 29.96 1015 10 16 0.00 0.00
3:43 am 03:43 Cloudy 57 14 55 13 94 94 ENE 9 15 29.96 1015 8 13 0.00 0.00
3:56 am 03:56 Cloudy 57 13.9 55 12.8 93 93 ENE 10 17 29.96 1015 9 14 0.00 0.00
4:04 am 04:04 Cloudy 57 14 55 13 94 94 ENE 13 20 29.95 1014 9 14 0.00 0.00
4:26 am 04:26 Cloudy 57 14 55 13 94 94 ENE 10 17 29.95 1014 8 13 0.00 0.00
4:56 am 04:56 Cloudy 56 13.3 55 12.8 97 97 NE 12 19 29.95 1014 10 16 0.00 0.00
5:32 am 05:32 Cloudy 55 13 54 12 94 94 ENE 15 24 29.97 1015 10 16 0.00 0.00
5:56 am 05:56 Cloudy 56 13.3 54 12.2 93 93 E 14 22 29.97 1015 10 16 0.00 0.00
6:56 am 06:56 Cloudy 56 13.3 54 12.2 93 93 ENE 9 15 29.97 1015 10 16 0.00 0.00
7:56 am 07:56 Cloudy 57 13.9 55 12.8 93 93 NE 9 15 29.98 1015 10 16 0.00 0.00
8:17 am 08:17 Cloudy 57 14 55 13 94 94 ENE 12 19 29.97 1015 10 16 0.00 0.00
8:33 am 08:33 Cloudy 57 14 55 13 94 94 NE 13 20 29.97 1015 10 16 0.00 0.00
8:52 am 08:52 Cloudy 57 14 55 13 94 94 NE 14 22 29.97 1015 10 16 0.00 0.00
8:56 am 08:56 Cloudy 58 14.4 55 12.8 90 90 ENE 14 22 29.98 1015 10 16 0.00 0.00
9:56 am 09:56 Cloudy 59 15 55 12.8 87 87 ENE 13 20 30.00 1016 10 16 0.00 0.00
10:46 am 10:46 Cloudy 61 16 55 13 83 83 NE 10 17 29.98 1015 10 16 0.00 0.00
10:56 am 10:56 Cloudy 60 15.6 56 13.3 86 86 ENE 13 20 30.00 1016 10 16 0.00 0.00
11:10 am 11:10 Cloudy 61 16 55 13 83 83 ENE 9 15 29.98 1015 10 16 0.00 0.00
11:35 am 11:35 Cloudy 61 16 55 13 83 83 ENE 10 17 29.98 1015 10 16 0.00 0.00
11:56 am 11:56 Cloudy 61 16.1 56 13.3 84 84 ENE 14 22 29.99 1016 10 16 0.00 0.00
12:28 pm 12:28 Cloudy 63 17 57 14 83 83 ENE 13 20 29.96 1015 10 16 0.00 0.00
12:56 pm 12:56 Cloudy 63 17.2 57 13.9 81 81 ENE 14 22 29.98 1015 10 16 0.00 0.00
1:46 pm 13:46 Cloudy 63 17 57 14 83 83 ENE 9 15 29.96 1015 10 16 0.00 0.00
1:53 pm 13:53 Cloudy 63 17 55 13 77 77 E 14 22 29.95 1014 10 16 0.00 0.00
1:56 pm 13:56 Cloudy 63 17.2 56 13.3 78 78 E 13 20 29.98 1015 10 16 0.00 0.00
2:56 pm 14:56 Cloudy 63 17.2 57 13.9 81 81 E 12 19 29.98 1015 10 16 0.00 0.00
3:08 pm 15:08 Cloudy 63 17 57 14 83 83 E 12 19 29.96 1015 10 16 0.00 0.00
3:17 pm 15:17 Cloudy 63 17 57 14 83 83 E 12 19 29.95 1014 10 16 0.00 0.00
3:47 pm 15:47 Cloudy 63 17 55 13 77 77 E 6 9 29.95 1014 10 16 0.00 0.00
3:56 pm 15:56 Cloudy 64 17.8 57 13.9 78 78 ENE 7 11 29.98 1015 10 16 0.00 0.00
4:56 pm 16:56 Cloudy 65 18.3 55 12.8 70 70 ESE 8 13 29.97 1015 10 16 0.00 0.00
5:56 pm 17:56 Cloudy 65 18.3 57 13.9 76 76 ENE 8 13 29.97 1015 10 16 0.00 0.00
6:20 pm 18:20 Cloudy 64 18 57 14 78 78 ENE 12 19 29.93 1014 10 16 0.00 0.00
6:56 pm 18:56 Cloudy 62 16.7 59 15 90 90 ENE 12 19 29.97 1015 10 16 0.00 0.00
7:05 pm 19:05 Cloudy 63 17 59 15 88 88 NE 10 17 29.94 1014 10 16 0.00 0.00
7:14 pm 19:14 Cloudy 63 17 59 15 88 88 ENE 12 19 29.94 1014 10 16 0.00 0.00
7:43 pm 19:43 Cloudy 61 16 57 14 88 88 ENE 13 20 29.95 1014 10 16 0.00 0.00
7:56 pm 19:56 Cloudy 61 16.1 58 14.4 90 90 ENE 13 20 29.97 1015 10 16 0.00 0.00
8:37 pm 20:37 Cloudy 61 16 57 14 88 88 ENE 12 19 29.94 1014 8 13 0.00 0.00
8:56 pm 20:56 Mostly Cloudy with Mist and Fog 59 15 58 14.4 96 96 NE 10 17 29.96 1015 6 10 0.00 0.00
9:21 pm 21:21 Partly Cloudy with Mist and Fog 57 14 57 14 100 100 NE 9 15 29.95 1014 6 10 0.00 0.00
9:56 pm 21:56 Mostly Clear 58 14.4 57 13.9 97 97 NE 8 13 29.96 1015 7 11 0.00 0.00
10:47 pm 22:47 Partly Cloudy with Mist and Fog 57 14 57 14 100 100 NE 9 15 29.95 1014 5 8 0.00 0.00
10:51 pm 22:51 Mostly Cloudy with Mist and Fog 57 14 57 14 100 100 NE 10 17 29.95 1014 5 8 0.00 0.00
10:56 pm 22:56 Mostly Cloudy with Mist and Fog 58 14.4 57 13.9 97 97 NE 13 20 29.97 1015 5 8 0.00 0.00
11:56 pm 23:56 Cloudy with Mist and Fog 59 15 58 14.4 96 96 E 6 9 29.98 1015 5 8 0.00 0.00

Powered by AerisWeather